Location: Deerlodge Park Campground
(40.4466°N, 108.5129°W)
Time: 11:03:13
(UTC-07:00)

Envisat - Visible Passes

Search period start: 12 November 2018 00:00
Search period end: 22 November 2018 00:00
Orbit: 764 x 766 km, 98.2° (Epoch: 12 November)

Date Brightness Start Highest point End Pass type
(mag) Time Alt. Az. Time Alt. Az. Time Alt. Az.
12 Nov 3.1 18:44:38 20° SE 18:47:56 51° ENE 18:52:50 10° N visible
12 Nov 5.5 20:24:51 13° SW 20:27:14 18° W 20:30:38 10° NW visible
13 Nov 4.0 18:07:43 11° ESE 18:11:26 24° ENE 18:15:27 10° NNE visible
13 Nov 4.2 19:47:57 26° SSW 19:50:13 40° W 19:54:59 10° NNW visible
14 Nov 4.8 17:33:37 10° ENE 17:35:11 11° ENE 17:36:44 10° NE visible
14 Nov 2.9 19:11:01 32° SSE 19:13:24 90° WSW 19:18:31 10° NNW visible
15 Nov 3.3 18:34:04 22° SE 18:36:48 41° ENE 18:41:31 10° N visible
15 Nov 5.1 20:14:18 19° WSW 20:15:56 23° W 20:19:54 10° NW visible
16 Nov 4.2 17:57:07 11° ESE 18:00:23 19° ENE 18:03:55 10° NNE visible
16 Nov 3.7 19:37:20 36° SSW 19:38:59 51° W 19:43:56 10° NNW visible
17 Nov 2.8 19:00:22 39° SSE 19:02:14 72° ENE 19:07:18 10° N visible
17 Nov 5.8 20:40:34 12° WSW 20:41:45 13° W 20:43:54 10° WNW visible
18 Nov 3.6 18:23:22 22° ESE 18:25:40 33° ENE 18:30:10 10° N visible
18 Nov 4.8 20:03:35 26° WSW 20:04:40 29° W 20:09:03 10° NW visible
19 Nov 6.4 06:32:55 10° ENE 06:34:13 11° E 06:35:30 10° ESE visible
19 Nov 4.5 17:46:23 10° E 17:49:18 16° ENE 17:52:16 10° NNE visible
19 Nov 3.3 19:26:34 49° SSW 19:27:46 65° W 19:32:49 10° NNW visible
20 Nov 3.0 18:49:34 40° SE 18:51:05 57° ENE 18:56:03 10° N visible
20 Nov 5.6 20:29:47 16° W 20:30:26 16° W 20:33:34 10° NW visible
21 Nov 3.9 18:12:32 20° ESE 18:14:34 26° ENE 18:18:44 10° NNE visible
21 Nov 4.3 19:52:44 35° WSW 19:53:24 36° W 19:58:05 10° NNW visible
